Terminal Aerodrome Forecast
Issued by NWS Boston, MA

Home | Current Version | Previous Version | Text Only | Print | Product List | Glossary On
Versions: 1 2 3 4 5 6 7 8 9 10 11 12 13 14 15 16 17 18 19 20 21 22 23
000
FTUS41 KBOX 230819 AAA
TAFPVD
TAF AMD
KPVD 230819Z 2308/2406 19005KT 5SM BR BKN080
      TEMPO 2309/2311 2SM BR BKN007
     FM231100 29006KT P6SM BKN045
     FM231500 30010KT P6SM BKN040
     FM232100 32016G23KT P6SM BKN040=

USA.gov is the U.S. government's official web portal to all federal, state and local government web resources and services.